CW4299 Treasure Island FL US current weather conditions

sailwx.info

Wind from 120 at 1 knots gusting 4

Air temperature 26.1° C
Dewpoint 23.6° C

Last reported at 2019-Jul-17 04:02 UTC.
Time now 2019-Jul-17 04:24 UTC

Location: N 27°46' W 082°46'.
View on Google Maps.

See reports from other nearby stations

  
Tides and Currents Weather Stations Pressure Air Temp Water Temp Dewpoint Dewpoint Depression Visibility Wind Speed Wind Dir Waves Ship Positions
date/time (UTC)wind fromknots sea level pressurealtimeterstation pressurevisibilityair tempwater tempwave heightnotes
2019-Jul-17 04:02 120 1 gusting 4 26.1
2019-Jul-17 03:46 109 0 gusting 3 26.1
2019-Jul-17 03:32 302 26.1
2019-Jul-17 03:16 103 26.1
2019-Jul-17 03:02 127 0 gusting 6 26.1
2019-Jul-17 02:46 103 2 gusting 6 26.7
2019-Jul-17 02:31 035 0 gusting 6 27.2
2019-Jul-17 02:16 042 1 gusting 5 27.8
2019-Jul-17 02:01 056 27.8
2019-Jul-17 01:46 058 27.8
2019-Jul-17 01:31 030 1 gusting 6 27.8
2019-Jul-17 01:16 105 2 gusting 6 28.3
2019-Jul-17 01:01 065 2 gusting 13 28.9
2019-Jul-17 00:46 084 0 gusting 6 30.6
2019-Jul-17 00:31 360 5 gusting 9 30.6
2019-Jul-17 00:17 335 3 gusting 7 31.1
2019-Jul-17 00:01 348 1 gusting 6 31.7
2019-Jul-16 23:46 328 2 gusting 6 31.7
2019-Jul-16 23:31 326 3 gusting 6 31.7
2019-Jul-16 23:16 303 3 gusting 7 31.7
2019-Jul-16 23:01 281 1 gusting 9 32.2
2019-Jul-16 22:45 312 2 gusting 8 31.7
2019-Jul-16 22:32 337 3 gusting 9 32.2
2019-Jul-16 22:16 295 6 gusting 9 31.1
2019-Jul-16 22:01 313 3 gusting 10 31.7
2019-Jul-16 21:45 255 5 gusting 11 32.2
2019-Jul-16 21:31 285 4 gusting 9 32.2
2019-Jul-16 21:15 005 5 gusting 12 32.2
2019-Jul-16 21:01 271 4 gusting 12 32.2
2019-Jul-16 20:46 278 4 gusting 9 32.2
2019-Jul-16 20:31 313 5 gusting 10 32.2
2019-Jul-16 20:17 321 5 gusting 10 32.2
2019-Jul-16 20:01 277 3 gusting 8 32.2
2019-Jul-16 19:47 316 3 gusting 8 32.2
2019-Jul-16 19:31 260 3 gusting 8 32.2
2019-Jul-16 19:16 271 4 gusting 8 32.2
2019-Jul-16 19:00 293 3 gusting 8 32.2
2019-Jul-16 18:45 262 4 gusting 7 31.7
2019-Jul-16 18:30 254 3 gusting 6 32.2
2019-Jul-16 18:16 270 3 gusting 6 32.2
2019-Jul-16 18:00 259 2 gusting 8 32.8
2019-Jul-16 17:45 171 1 gusting 5 33.9
2019-Jul-16 17:30 259 0 gusting 5 33.3
2019-Jul-16 17:15 234 1 gusting 6 32.8
2019-Jul-16 17:00 240 0 gusting 5 33.3
2019-Jul-16 16:45 219 1 gusting 6 32.8
2019-Jul-16 16:30 229 1 gusting 6 32.8
2019-Jul-16 16:15 253 0 gusting 6 32.8
2019-Jul-16 16:00 213 0 gusting 5 33.3
2019-Jul-16 15:45 142 2 gusting 5 32.8
2019-Jul-16 15:30 097 0 gusting 4 33.3
2019-Jul-16 15:15 172 1 gusting 4 32.2
2019-Jul-16 15:00 131 1 gusting 6 31.1
2019-Jul-16 14:45 129 2 gusting 6 31.1
2019-Jul-16 14:32 169 2 gusting 5 30.6
2019-Jul-16 14:17 107 3 gusting 6 30.0
2019-Jul-16 14:01 139 4 gusting 8 29.4
2019-Jul-16 13:46 122 5 gusting 8 29.4
2019-Jul-16 13:31 135 3 gusting 7 29.4
2019-Jul-16 13:16 103 3 gusting 6 28.9
2019-Jul-16 13:01 121 4 gusting 8 28.9
2019-Jul-16 12:46 094 3 gusting 9 28.3
2019-Jul-16 12:31 112 2 gusting 9 28.3
2019-Jul-16 12:16 110 3 gusting 10 27.8
2019-Jul-16 12:01 132 3 gusting 8 27.2
2019-Jul-16 11:45 127 3 gusting 6 26.7
2019-Jul-16 11:30
2019-Jul-16 11:15
2019-Jul-16 11:01
2019-Jul-16 10:45
2019-Jul-16 10:30
2019-Jul-16 10:16
2019-Jul-16 10:00
2019-Jul-16 09:45
2019-Jul-16 09:31
2019-Jul-16 09:16
2019-Jul-16 09:01
2019-Jul-16 08:47
2019-Jul-16 08:32
2019-Jul-16 08:15
2019-Jul-16 08:00
2019-Jul-16 07:45
2019-Jul-16 07:30
2019-Jul-16 07:15
2019-Jul-16 07:00
2019-Jul-16 06:45
2019-Jul-16 06:30 079 1 gusting 6 26.7
2019-Jul-16 06:15 072 1 gusting 5 27.2
2019-Jul-16 06:00 082 1 gusting 4 26.7
2019-Jul-16 05:47 099 1 gusting 4 26.7
2019-Jul-16 05:31 123 26.7
2019-Jul-16 05:16 104 0 gusting 5 26.7
2019-Jul-16 05:01 107 2 gusting 6 26.7
2019-Jul-16 04:46 117 26.7
2019-Jul-16 04:31 118 27.2
2019-Jul-16 04:16 086 0 gusting 5 27.2
2019-Jul-16 04:02 064 27.2
2019-Jul-16 03:47 120 27.8
2019-Jul-16 03:31 101 27.2
2019-Jul-16 03:17 089 27.2
2019-Jul-16 03:01 105 27.2
2019-Jul-16 02:46 024 0 gusting 4 27.8
2019-Jul-16 02:31 036 27.8
2019-Jul-16 02:16 077 27.8
2019-Jul-16 02:01 014 27.8
2019-Jul-16 01:46 051 27.8
2019-Jul-16 01:31 070 27.2
2019-Jul-16 01:17 079 27.2
2019-Jul-16 01:01 023 27.8
2019-Jul-16 00:46 109 27.8
2019-Jul-16 00:31 095 0 gusting 3 27.8
2019-Jul-16 00:16 112 1 gusting 4 27.2
2019-Jul-16 00:02 062 27.2
2019-Jul-15 23:46 020 27.2
2019-Jul-15 23:30 030 26.7
2019-Jul-15 23:16 101 1 gusting 13 26.7
2019-Jul-15 23:01 145 6 gusting 16 29.4
2019-Jul-15 22:45 038 3 gusting 9 31.1
2019-Jul-15 22:31 328 5 gusting 8 31.7
2019-Jul-15 22:15 020 4 gusting 9 32.2
2019-Jul-15 22:01 344 6 gusting 10 31.7
2019-Jul-15 21:46 290 4 gusting 9 31.7
2019-Jul-15 21:31 283 5 gusting 10 31.1
2019-Jul-15 21:16 009 4 gusting 10 31.1
2019-Jul-15 21:00 316 4 gusting 8 30.6
2019-Jul-15 20:45 333 4 gusting 10 30.6
2019-Jul-15 20:31 267 4 gusting 11 31.1
2019-Jul-15 20:16 262 5 gusting 10 31.7
2019-Jul-15 20:01 314 5 gusting 9 31.1
2019-Jul-15 19:46 004 4 gusting 9 31.7
2019-Jul-15 19:30 226 3 gusting 8 31.7
2019-Jul-15 19:15 276 4 gusting 8 31.7
2019-Jul-15 19:01 243 4 gusting 7 31.7
2019-Jul-15 18:45 337 4 gusting 7 31.7
2019-Jul-15 18:30 238 3 gusting 7 31.1
2019-Jul-15 18:15 270 2 gusting 6 31.1
2019-Jul-15 18:01 266 2 gusting 5 31.7
2019-Jul-15 17:45 246 0 gusting 3 31.7
2019-Jul-15 17:30 266 1 gusting 4 31.7
2019-Jul-15 17:15 276 0 gusting 5 31.7
2019-Jul-15 17:00 295 0 gusting 4 32.8
2019-Jul-15 16:45 225 1 gusting 5 32.8
2019-Jul-15 16:30 243 33.3
2019-Jul-15 16:15 248 0 gusting 5 32.2
2019-Jul-15 16:00 213 1 gusting 6 32.2
2019-Jul-15 15:45 153 0 gusting 6 32.2
2019-Jul-15 15:30 221 32.2
2019-Jul-15 15:15 165 2 gusting 6 31.7
2019-Jul-15 15:00 116 1 gusting 5 31.1
2019-Jul-15 14:47 133 3 gusting 6 31.1
2019-Jul-15 14:31 097 3 gusting 6 30.6
2019-Jul-15 14:17 136 2 gusting 6 30.0
2019-Jul-15 14:02 141 2 gusting 7 29.4
2019-Jul-15 13:47 128 2 gusting 6 29.4
2019-Jul-15 13:31 105 0 gusting 6 29.4
2019-Jul-15 13:16 113 0 gusting 4 28.9
2019-Jul-15 13:01 113 4 gusting 6 28.3
2019-Jul-15 12:46 109 28.3
2019-Jul-15 12:32 101 27.8
2019-Jul-15 12:16 113 27.2
2019-Jul-15 12:01 091 0 gusting 3 26.7
2019-Jul-15 11:46 118 26.7
2019-Jul-15 11:31
2019-Jul-15 11:16
2019-Jul-15 11:01
2019-Jul-15 10:46
2019-Jul-15 10:30
2019-Jul-15 10:16
2019-Jul-15 10:00
2019-Jul-15 09:45
2019-Jul-15 09:30
2019-Jul-15 09:15
2019-Jul-15 09:00
2019-Jul-15 08:47
2019-Jul-15 08:32
2019-Jul-15 08:16
2019-Jul-15 08:01
2019-Jul-15 07:46
2019-Jul-15 07:31
2019-Jul-15 07:15
2019-Jul-15 07:00 101 1 gusting 5 27.2
2019-Jul-15 06:46 113 3 gusting 6 27.8
2019-Jul-15 06:31 119 1 gusting 6 27.8
2019-Jul-15 06:15 116 2 gusting 6 27.8
2019-Jul-15 06:00 114 3 gusting 9 28.3
2019-Jul-15 05:45 096 5 gusting 10 28.3
2019-Jul-15 05:30 117 2 gusting 6 28.9
2019-Jul-15 05:15 102 1 gusting 6 28.9
2019-Jul-15 05:00 096 1 gusting 5 28.9
2019-Jul-15 04:45 101 1 gusting 6 29.4
2019-Jul-15 04:30 086 3 gusting 7 29.4
2019-Jul-15 04:15 107 0 gusting 3 28.9
2019-Jul-15 04:00 005 28.9